Weather Roundup
Issued by NWS Corpus Christi, TX

Home | Current Version | Previous Version | Text Only | Print | Product List | Glossary On
Versions: 1 2 3 4 5 6 7 8 9 10 11 12 13 14 15 16 17 18 19 20 21 22 23 24 25 26 27 28 29 30 31 32 33 34 35 36 37 38 39 40 41 42 43 44 45 46 47 48 49 50
000
ASUS44 KCRP 010810
HRRCRP

SOUTH TEXAS REGIONAL WEATHER ROUNDUP
NATIONAL WEATHER SERVICE CORPUS CHRISTI TX
300 AM CDT SAT OCT 01 2016


TXZ229>244-010900-
...CORPUS CHRISTI AREA OBSERVATIONS...

CITY           SKY/WX    TMP DP  RH WIND       PRES   REMARKS
CORPUS CHRISTI CLOUDY    65  62  90 NW6       30.05S
NAS CORPUS CHR CLOUDY    74  60  61 E5        30.04S
ROCKPORT       MOCLDY    67  62  84 N3        30.05S
KINGSVILLE NAS CLOUDY    62  61  96 NW6       30.05S
ALICE          MOCLDY    63  59  87 NW5       30.05S
FALFURRIAS     MOCLDY    66  58  74 CALM      30.05S
$$

...VICTORIA AREA OBSERVATIONS...

CITY           SKY/WX    TMP DP  RH WIND       PRES   REMARKS
VICTORIA       CLOUDY    61  57  87 NE6       30.07F
BEEVILLE       FAIR      61  58  91 N3        30.06S
PLEASANTON     CLOUDY    59  56  91 CALM      30.09S
SAN ANTONIO    CLOUDY    63  56  78 NW5       30.10S
$$

...LAREDO AREA OBSERVATIONS...

CITY           SKY/WX    TMP DP  RH WIND       PRES   REMARKS
LAREDO         CLOUDY    68  59  73 CALM      30.06R
COTULLA        CLOUDY    66  57  72 CALM      30.08S
DEL RIO        CLOUDY    67  61  81 E7        30.07S
MCALLEN        CLOUDY    75  62  64 N3        30.05S
HEBBRONVILLE   CLOUDY    67  60  79 CALM      30.08S
$$

...OTHER TEXAS OBSERVATIONS...

CITY           SKY/WX    TMP DP  RH WIND       PRES   REMARKS
BROWNSVILLE    MOCLDY    71  65  81 NW5       30.03F
HOUSTON        MOCLDY    62  59  90 CALM      30.08S
COL. STATION   CLEAR     63  55  75 CALM      30.08F
AUSTIN         PTCLDY    57  56  96 CALM      30.09S
WACO           MOCLDY    57  54  89 NW3       30.09S
FORT WORTH     MOCLDY    67  55  65 NW3       30.08S
WICHITA FALLS  CLOUDY    61  54  77 SE3       30.09F
LUBBOCK        CLOUDY    63  52  67 S7        30.13F
EL PASO        PTCLDY    64  59  83 SE6       30.15S
$$

...MARINE OBSERVATIONS...

STATION/POSITION TIME  SKY/WX   TEMP    WIND        PRES    VSBY  WAVE   SWELL
                                AIR SEA DIR/SP/G                  HT/PER HT/PER
                 (UTC)          (F)     (DEG/KT/KT) (MB)    (MI)  (FT/S) (FT/S)
PORT ARANSAS     0800            77 82   90/  8/ 10 1017.5F
BUOY 90 E PORT A 0750            78 85   50/ 10/ 14 1017.4F         2/ 6   2/ 6
BUOY 45 SE BAFFI 0750            79 83   90/  8/ 10 1016.6F         2/ 6   2/ 6
BUOY 200 E PT IS 0750            81 86   40/  6/  8 1015.3F         2/ 6   2/ 6
BUOY 15 E GALVES 0750            77 84   10/  6/ 10 1017.8F         1/ 5
$$




USA.gov is the U.S. government's official web portal to all federal, state and local government web resources and services.